Location: Barcelona
(41.3830°N, 2.1830°E)
Time: 23:28:00
(UTC+02:00)

ISS - Pass Details

Date: 22 May 2019
Orbit: 408 x 418 km, 51.6° (Epoch: 26 May)

Event Time Altitude Azimuth Distance (km) Brightness Sun altitude
Rises 22:37:33 0° 270° (W) 2,343 0.8 -14.1°
Reaches altitude 10° 22:39:56 10° 286° (WNW) 1,485 0.0 -14.4°
Maximum altitude 22:42:38 22° 340° (NNW) 954 -1.1 -14.7°
Drops below altitude 10° 22:45:21 10° 35° (NE) 1,494 -0.8 -15.1°
Sets 22:47:45 0° 51° (NE) 2,360 0.0 -15.4°
